Year,Month,Day,Hour,Minute,Value (Times are PST for temperature in C)
2017,10,30,00,00,8.20
2017,10,30,00,01,8.20
2017,10,30,00,02,8.10
2017,10,30,00,03,8.10
2017,10,30,00,04,8.10
2017,10,30,00,05,8.00
2017,10,30,00,06,8.00
2017,10,30,00,07,7.90
2017,10,30,00,08,7.90
2017,10,30,00,09,7.80
2017,10,30,00,10,7.80
2017,10,30,00,11,7.80
2017,10,30,00,12,7.70
2017,10,30,00,13,7.70
2017,10,30,00,14,7.70
2017,10,30,00,15,7.70
2017,10,30,00,16,7.70
2017,10,30,00,17,7.70
2017,10,30,00,18,7.70
2017,10,30,00,19,7.70
2017,10,30,00,20,7.70
2017,10,30,00,21,7.70
2017,10,30,00,22,7.70
2017,10,30,00,23,7.70
2017,10,30,00,24,7.60
2017,10,30,00,25,7.60
2017,10,30,00,26,7.60
2017,10,30,00,27,7.60
2017,10,30,00,28,7.50
2017,10,30,00,29,7.50
2017,10,30,00,30,7.50
2017,10,30,00,31,7.50
2017,10,30,00,32,7.40
2017,10,30,00,33,7.40
2017,10,30,00,34,7.40
2017,10,30,00,35,7.40
2017,10,30,00,36,7.30
2017,10,30,00,37,7.30
2017,10,30,00,38,7.30
2017,10,30,00,39,7.30
2017,10,30,00,40,7.20
2017,10,30,00,41,7.20
2017,10,30,00,42,7.20
2017,10,30,00,43,7.20
2017,10,30,00,44,7.20
2017,10,30,00,45,7.20
2017,10,30,00,46,7.10
2017,10,30,00,47,7.10
2017,10,30,00,48,7.10
2017,10,30,00,49,7.10
2017,10,30,00,50,7.10
2017,10,30,00,51,7.00
2017,10,30,00,52,7.00
2017,10,30,00,53,6.90
2017,10,30,00,54,6.90
2017,10,30,00,55,6.90
2017,10,30,00,56,6.90
2017,10,30,00,57,6.80
2017,10,30,00,58,6.80
2017,10,30,00,59,6.80
2017,10,30,01,00,6.80
2017,10,30,01,01,6.80
2017,10,30,01,02,6.80
2017,10,30,01,03,6.80
2017,10,30,01,04,6.80
2017,10,30,01,05,6.80
2017,10,30,01,06,6.80
2017,10,30,01,07,6.80
2017,10,30,01,08,6.80
2017,10,30,01,09,6.80
2017,10,30,01,10,6.80
2017,10,30,01,11,6.80
2017,10,30,01,12,6.70
2017,10,30,01,13,6.70
2017,10,30,01,14,6.70
2017,10,30,01,15,6.70
2017,10,30,01,16,6.70
2017,10,30,01,17,6.70
2017,10,30,01,18,6.70
2017,10,30,01,19,6.70
2017,10,30,01,20,6.70
2017,10,30,01,21,6.70
2017,10,30,01,22,6.70
2017,10,30,01,23,6.70
2017,10,30,01,24,6.60
2017,10,30,01,25,6.60
2017,10,30,01,26,6.60
2017,10,30,01,27,6.60
2017,10,30,01,28,6.60
2017,10,30,01,29,6.60
2017,10,30,01,30,6.60
2017,10,30,01,31,6.60
2017,10,30,01,32,6.50
2017,10,30,01,33,6.50
2017,10,30,01,34,6.50
2017,10,30,01,35,6.50
2017,10,30,01,36,6.50
2017,10,30,01,37,6.40
2017,10,30,01,38,6.40
2017,10,30,01,39,6.40
2017,10,30,01,40,6.40
2017,10,30,01,41,6.40
2017,10,30,01,42,6.30
2017,10,30,01,43,6.30
2017,10,30,01,44,6.30
2017,10,30,01,45,6.30
2017,10,30,01,46,6.30
2017,10,30,01,47,6.30
2017,10,30,01,48,6.30
2017,10,30,01,49,6.20
2017,10,30,01,50,6.20
2017,10,30,01,51,6.20
2017,10,30,01,52,6.20
2017,10,30,01,53,6.20
2017,10,30,01,54,6.10
2017,10,30,01,55,6.10
2017,10,30,01,56,6.10
2017,10,30,01,57,6.10
2017,10,30,01,58,6.00
2017,10,30,01,59,6.00
2017,10,30,02,00,6.00
2017,10,30,02,01,5.90
2017,10,30,02,02,5.90
2017,10,30,02,03,5.90
2017,10,30,02,04,5.90
2017,10,30,02,05,5.80
2017,10,30,02,06,5.80
2017,10,30,02,07,5.80
2017,10,30,02,08,5.80
2017,10,30,02,09,5.80
2017,10,30,02,10,5.80
2017,10,30,02,11,5.80
2017,10,30,02,12,5.80
2017,10,30,02,13,5.80
2017,10,30,02,14,5.80
2017,10,30,02,15,5.70
2017,10,30,02,16,5.70
2017,10,30,02,17,5.70
2017,10,30,02,18,5.70
2017,10,30,02,19,5.70
2017,10,30,02,20,5.70
2017,10,30,02,21,5.60
2017,10,30,02,22,5.60
2017,10,30,02,23,5.60
2017,10,30,02,24,5.60
2017,10,30,02,25,5.60
2017,10,30,02,26,5.60
2017,10,30,02,27,5.60
2017,10,30,02,28,5.60
2017,10,30,02,29,5.60
2017,10,30,02,30,5.60
2017,10,30,02,31,5.60
2017,10,30,02,32,5.60
2017,10,30,02,33,5.60
2017,10,30,02,34,5.60
2017,10,30,02,35,5.60
2017,10,30,02,36,5.60
2017,10,30,02,37,5.60
2017,10,30,02,38,5.60
2017,10,30,02,39,5.60
2017,10,30,02,40,5.60
2017,10,30,02,41,5.60
2017,10,30,02,42,5.50
2017,10,30,02,43,5.50
2017,10,30,02,44,5.50
2017,10,30,02,45,5.50
2017,10,30,02,46,5.50
2017,10,30,02,47,5.50
2017,10,30,02,48,5.40
2017,10,30,02,49,5.40
2017,10,30,02,50,5.40
2017,10,30,02,51,5.40
2017,10,30,02,52,5.40
2017,10,30,02,53,5.40
2017,10,30,02,54,5.40
2017,10,30,02,55,5.40
2017,10,30,02,56,5.40
2017,10,30,02,57,5.40
2017,10,30,02,58,5.40
2017,10,30,02,59,5.40
2017,10,30,03,00,5.40
2017,10,30,03,01,5.30
2017,10,30,03,02,5.30
2017,10,30,03,03,5.30
2017,10,30,03,04,5.30
2017,10,30,03,05,5.30
2017,10,30,03,06,5.30
2017,10,30,03,07,5.30
2017,10,30,03,08,5.30
2017,10,30,03,09,5.30
2017,10,30,03,10,5.30
2017,10,30,03,11,5.30
2017,10,30,03,12,5.30
2017,10,30,03,13,5.30
2017,10,30,03,14,5.30
2017,10,30,03,15,5.30
2017,10,30,03,16,5.30
2017,10,30,03,17,5.30
2017,10,30,03,18,5.30
2017,10,30,03,19,5.30
2017,10,30,03,20,5.30
2017,10,30,03,21,5.30
2017,10,30,03,22,5.30
2017,10,30,03,23,5.30
2017,10,30,03,24,5.30
2017,10,30,03,25,5.30
2017,10,30,03,26,5.20
2017,10,30,03,27,5.20
2017,10,30,03,28,5.20
2017,10,30,03,29,5.20
2017,10,30,03,30,5.20
2017,10,30,03,31,5.20
2017,10,30,03,32,5.20
2017,10,30,03,33,5.10
2017,10,30,03,34,5.10
2017,10,30,03,35,5.10
2017,10,30,03,36,5.10
2017,10,30,03,37,5.10
2017,10,30,03,38,5.10
2017,10,30,03,39,5.10
2017,10,30,03,40,5.10
2017,10,30,03,41,5.00
2017,10,30,03,42,5.00
2017,10,30,03,43,5.00
2017,10,30,03,44,5.00
2017,10,30,03,45,5.00
2017,10,30,03,46,5.00
2017,10,30,03,47,5.00
2017,10,30,03,48,5.00
2017,10,30,03,49,5.00
2017,10,30,03,50,4.90
2017,10,30,03,51,4.90
2017,10,30,03,52,4.90
2017,10,30,03,53,4.90
2017,10,30,03,54,4.90
2017,10,30,03,55,4.90
2017,10,30,03,56,4.90
2017,10,30,03,57,4.90
2017,10,30,03,58,4.90
2017,10,30,03,59,4.90
2017,10,30,04,00,4.90
2017,10,30,04,01,4.80
2017,10,30,04,02,4.80
2017,10,30,04,03,4.80
2017,10,30,04,04,4.80
2017,10,30,04,05,4.80
2017,10,30,04,06,4.80
2017,10,30,04,07,4.80
2017,10,30,04,08,4.80
2017,10,30,04,09,4.80
2017,10,30,04,10,4.80
2017,10,30,04,11,4.80
2017,10,30,04,12,4.80
2017,10,30,04,13,4.80
2017,10,30,04,14,4.70
2017,10,30,04,15,4.70
2017,10,30,04,16,4.70
2017,10,30,04,17,4.70
2017,10,30,04,18,4.70
2017,10,30,04,19,4.70
2017,10,30,04,20,4.70
2017,10,30,04,21,4.70
2017,10,30,04,22,4.70
2017,10,30,04,23,4.60
2017,10,30,04,24,4.60
2017,10,30,04,25,4.60
2017,10,30,04,26,4.60
2017,10,30,04,27,4.50
2017,10,30,04,28,4.50
2017,10,30,04,29,4.50
2017,10,30,04,30,4.40
2017,10,30,04,31,4.40
2017,10,30,04,32,4.40
2017,10,30,04,33,4.40
2017,10,30,04,34,4.40
2017,10,30,04,35,4.40
2017,10,30,04,36,4.40
2017,10,30,04,37,4.40
2017,10,30,04,38,4.40
2017,10,30,04,39,4.40
2017,10,30,04,40,4.40
2017,10,30,04,41,4.40
2017,10,30,04,42,4.40
2017,10,30,04,43,4.30
2017,10,30,04,44,4.30
2017,10,30,04,45,4.30
2017,10,30,04,46,4.30
2017,10,30,04,47,4.30
2017,10,30,04,48,4.30
2017,10,30,04,49,4.30
2017,10,30,04,50,4.30
2017,10,30,04,51,4.30
2017,10,30,04,52,4.30
2017,10,30,04,53,4.30
2017,10,30,04,54,4.30
2017,10,30,04,55,4.30
2017,10,30,04,56,4.30
2017,10,30,04,57,4.30
2017,10,30,04,58,4.30
2017,10,30,04,59,4.20
2017,10,30,05,00,4.20
2017,10,30,05,01,4.20
2017,10,30,05,02,4.20
2017,10,30,05,03,4.20
2017,10,30,05,04,4.20
2017,10,30,05,05,4.20
2017,10,30,05,06,4.20
2017,10,30,05,07,4.20
2017,10,30,05,08,4.20
2017,10,30,05,09,4.20
2017,10,30,05,10,4.20
2017,10,30,05,11,4.20
2017,10,30,05,12,4.20
2017,10,30,05,13,4.20
2017,10,30,05,14,4.20
2017,10,30,05,15,4.20
2017,10,30,05,16,4.10
2017,10,30,05,17,4.10
2017,10,30,05,18,4.10
2017,10,30,05,19,4.10
2017,10,30,05,20,4.10
2017,10,30,05,21,4.10
2017,10,30,05,22,4.10
2017,10,30,05,23,4.00
2017,10,30,05,24,4.00
2017,10,30,05,25,4.00
2017,10,30,05,26,4.00
2017,10,30,05,27,4.00
2017,10,30,05,28,3.90
2017,10,30,05,29,3.90
2017,10,30,05,30,3.90
2017,10,30,05,31,3.90
2017,10,30,05,32,3.90
2017,10,30,05,33,3.90
2017,10,30,05,34,3.90
2017,10,30,05,35,3.80
2017,10,30,05,36,3.80
2017,10,30,05,37,3.80
2017,10,30,05,38,3.80
2017,10,30,05,39,3.80
2017,10,30,05,40,3.80
2017,10,30,05,41,3.80
2017,10,30,05,42,3.80
2017,10,30,05,43,3.80
2017,10,30,05,44,3.80
2017,10,30,05,45,3.80
2017,10,30,05,46,3.80
2017,10,30,05,47,3.80
2017,10,30,05,48,3.80
2017,10,30,05,49,3.80
2017,10,30,05,50,3.80
2017,10,30,05,51,3.80
2017,10,30,05,52,3.80
2017,10,30,05,53,3.80
2017,10,30,05,54,3.70
2017,10,30,05,55,3.70
2017,10,30,05,56,3.70
2017,10,30,05,57,3.70
2017,10,30,05,58,3.60
2017,10,30,05,59,3.60
2017,10,30,06,00,3.60
2017,10,30,06,01,3.60
2017,10,30,06,02,3.60
2017,10,30,06,03,3.60
2017,10,30,06,04,3.60
2017,10,30,06,05,3.60
2017,10,30,06,06,3.60
2017,10,30,06,07,3.60
2017,10,30,06,08,3.60
2017,10,30,06,09,3.60
2017,10,30,06,10,3.60
2017,10,30,06,11,3.60
2017,10,30,06,12,3.60
2017,10,30,06,13,3.60
2017,10,30,06,14,3.60
2017,10,30,06,15,3.60
2017,10,30,06,16,3.50
2017,10,30,06,17,3.50
2017,10,30,06,18,3.50
2017,10,30,06,19,3.50
2017,10,30,06,20,3.50
2017,10,30,06,21,3.50
2017,10,30,06,22,3.50
2017,10,30,06,23,3.40
2017,10,30,06,24,3.40
2017,10,30,06,25,3.40
2017,10,30,06,26,3.40
2017,10,30,06,27,3.40
2017,10,30,06,28,3.40
2017,10,30,06,29,3.40
2017,10,30,06,30,3.40
2017,10,30,06,31,3.30
2017,10,30,06,32,3.30
2017,10,30,06,33,3.30
2017,10,30,06,34,3.30
2017,10,30,06,35,3.30
2017,10,30,06,36,3.30
2017,10,30,06,37,3.30
2017,10,30,06,38,3.30
2017,10,30,06,39,3.30
2017,10,30,06,40,3.30
2017,10,30,06,41,3.20
2017,10,30,06,42,3.20
2017,10,30,06,43,3.20
2017,10,30,06,44,3.20
2017,10,30,06,45,3.20
2017,10,30,06,46,3.20
2017,10,30,06,47,3.20
2017,10,30,06,48,3.20
2017,10,30,06,49,3.20
2017,10,30,06,50,3.10
2017,10,30,06,51,3.10
2017,10,30,06,52,3.10
2017,10,30,06,53,3.10
2017,10,30,06,54,3.10
2017,10,30,06,55,3.10
2017,10,30,06,56,3.00
2017,10,30,06,57,3.00
2017,10,30,06,58,3.00
2017,10,30,06,59,3.00
2017,10,30,07,00,3.00
2017,10,30,07,01,3.00
2017,10,30,07,02,3.00
2017,10,30,07,03,3.00
2017,10,30,07,04,3.00
2017,10,30,07,05,3.00
2017,10,30,07,06,3.00
2017,10,30,07,07,3.00
2017,10,30,07,08,3.00
2017,10,30,07,09,3.00
2017,10,30,07,10,3.00
2017,10,30,07,11,3.00
2017,10,30,07,12,3.00
2017,10,30,07,13,3.00
2017,10,30,07,14,3.00
2017,10,30,07,15,3.00
2017,10,30,07,16,3.00
2017,10,30,07,17,3.00
2017,10,30,07,18,3.00
2017,10,30,07,19,3.00
2017,10,30,07,20,3.00
2017,10,30,07,21,3.00
2017,10,30,07,22,3.00
2017,10,30,07,23,3.00
2017,10,30,07,24,3.00
2017,10,30,07,25,3.00
2017,10,30,07,26,3.00
2017,10,30,07,27,2.90
2017,10,30,07,28,2.90
2017,10,30,07,29,2.90
2017,10,30,07,30,2.90
2017,10,30,07,31,2.90
2017,10,30,07,32,2.90
2017,10,30,07,33,2.90
2017,10,30,07,34,2.90
2017,10,30,07,35,2.90
2017,10,30,07,36,2.90
2017,10,30,07,37,2.90
2017,10,30,07,38,2.80
2017,10,30,07,39,2.80
2017,10,30,07,40,2.80
2017,10,30,07,41,2.80
2017,10,30,07,42,2.80
2017,10,30,07,43,2.80
2017,10,30,07,44,2.80
2017,10,30,07,45,2.80
2017,10,30,07,46,2.80
2017,10,30,07,47,2.80
2017,10,30,07,48,2.80
2017,10,30,07,49,2.80
2017,10,30,07,50,2.80
2017,10,30,07,51,2.80
2017,10,30,07,52,2.80
2017,10,30,07,53,2.80
2017,10,30,07,54,2.80
2017,10,30,07,55,2.80
2017,10,30,07,56,2.80
2017,10,30,07,57,2.80
2017,10,30,07,58,2.80
2017,10,30,07,59,2.80
2017,10,30,08,00,2.80
2017,10,30,08,01,2.80
2017,10,30,08,02,2.70
2017,10,30,08,03,2.70
2017,10,30,08,04,2.70
2017,10,30,08,05,2.70
2017,10,30,08,06,2.70
2017,10,30,08,07,2.70
2017,10,30,08,08,2.70
2017,10,30,08,09,2.80
2017,10,30,08,10,2.80
2017,10,30,08,11,2.80
2017,10,30,08,12,2.80
2017,10,30,08,13,2.80
2017,10,30,08,14,2.80
2017,10,30,08,15,2.70
2017,10,30,08,16,2.70
2017,10,30,08,17,2.70
2017,10,30,08,18,2.70
2017,10,30,08,19,2.70
2017,10,30,08,20,2.70
2017,10,30,08,21,2.70
2017,10,30,08,22,2.70
2017,10,30,08,23,2.70
2017,10,30,08,24,2.70
2017,10,30,08,25,2.70
2017,10,30,08,26,2.70
2017,10,30,08,27,2.70
2017,10,30,08,28,2.70
2017,10,30,08,29,2.70
2017,10,30,08,30,2.70
2017,10,30,08,31,2.70
2017,10,30,08,32,2.70
2017,10,30,08,33,2.70
2017,10,30,08,34,2.80
2017,10,30,08,35,2.80
2017,10,30,08,36,2.80
2017,10,30,08,37,2.80
2017,10,30,08,38,2.80
2017,10,30,08,39,2.80
2017,10,30,08,40,2.80
2017,10,30,08,41,2.80
2017,10,30,08,42,2.80
2017,10,30,08,43,2.90
2017,10,30,08,44,2.90
2017,10,30,08,45,2.90
2017,10,30,08,46,2.90
2017,10,30,08,47,2.90
2017,10,30,08,48,2.90
2017,10,30,08,49,3.00
2017,10,30,08,50,3.00
2017,10,30,08,51,3.00
2017,10,30,08,52,3.00
2017,10,30,08,53,3.10
2017,10,30,08,54,3.10
2017,10,30,08,55,3.10
2017,10,30,08,56,3.10
2017,10,30,08,57,3.10
2017,10,30,08,58,3.10
2017,10,30,08,59,3.10
2017,10,30,09,00,3.10
2017,10,30,09,01,3.10
2017,10,30,09,02,3.10
2017,10,30,09,03,3.20
2017,10,30,09,04,3.20
2017,10,30,09,05,3.20
2017,10,30,09,06,3.20
2017,10,30,09,07,3.20
2017,10,30,09,08,3.20
2017,10,30,09,09,3.20
2017,10,30,09,10,3.20
2017,10,30,09,11,3.20
2017,10,30,09,12,3.30
2017,10,30,09,13,3.30
2017,10,30,09,14,3.30
2017,10,30,09,15,3.30
2017,10,30,09,16,3.40
2017,10,30,09,17,3.40
2017,10,30,09,18,3.50
2017,10,30,09,19,3.50
2017,10,30,09,20,3.60
2017,10,30,09,21,3.60
2017,10,30,09,22,3.70
2017,10,30,09,23,3.70
2017,10,30,09,24,3.80
2017,10,30,09,25,3.80
2017,10,30,09,26,3.80
2017,10,30,09,27,3.90
2017,10,30,09,28,4.00
2017,10,30,09,29,4.10
2017,10,30,09,30,4.10
2017,10,30,09,31,4.20
2017,10,30,09,32,4.20
2017,10,30,09,33,4.30
2017,10,30,09,34,4.30
2017,10,30,09,35,4.40
2017,10,30,09,36,4.50
2017,10,30,09,37,4.60
2017,10,30,09,38,4.60
2017,10,30,09,39,4.70
2017,10,30,09,40,4.80
2017,10,30,09,41,4.80
2017,10,30,09,42,4.90
2017,10,30,09,43,5.00
2017,10,30,09,44,5.00
2017,10,30,09,45,5.10
2017,10,30,09,46,5.20
2017,10,30,09,47,5.20
2017,10,30,09,48,5.30
2017,10,30,09,49,5.30
2017,10,30,09,50,5.40
2017,10,30,09,51,5.50
2017,10,30,09,52,5.60
2017,10,30,09,53,5.60
2017,10,30,09,54,5.70
2017,10,30,09,55,5.70
2017,10,30,09,56,5.80
2017,10,30,09,57,5.80
2017,10,30,09,58,5.80
2017,10,30,09,59,5.90
2017,10,30,10,00,5.90
2017,10,30,10,01,6.00
2017,10,30,10,02,6.00
2017,10,30,10,03,6.10
2017,10,30,10,04,6.10
2017,10,30,10,05,6.20
2017,10,30,10,06,6.30
2017,10,30,10,07,6.30
2017,10,30,10,08,6.40
2017,10,30,10,09,6.40
2017,10,30,10,10,6.50
2017,10,30,10,11,6.60
2017,10,30,10,12,6.70
2017,10,30,10,13,6.70
2017,10,30,10,14,6.80
2017,10,30,10,15,6.90
2017,10,30,10,16,7.00
2017,10,30,10,17,7.10
2017,10,30,10,18,7.20
2017,10,30,10,19,7.30
2017,10,30,10,20,7.40
2017,10,30,10,21,7.50
2017,10,30,10,22,7.60
2017,10,30,10,23,7.70
2017,10,30,10,24,7.80
2017,10,30,10,25,7.90
2017,10,30,10,26,8.00
2017,10,30,10,27,8.10
2017,10,30,10,28,8.20
2017,10,30,10,29,8.30
2017,10,30,10,30,8.30
2017,10,30,10,31,8.40
2017,10,30,10,32,8.60
2017,10,30,10,33,8.70
2017,10,30,10,34,8.80
2017,10,30,10,35,8.90
2017,10,30,10,36,8.90
2017,10,30,10,37,9.00
2017,10,30,10,38,9.10
2017,10,30,10,39,9.20
2017,10,30,10,40,9.30
2017,10,30,10,41,9.40
2017,10,30,10,42,9.50
2017,10,30,10,43,9.60
2017,10,30,10,44,9.70
2017,10,30,10,45,9.80
2017,10,30,10,46,9.90
2017,10,30,10,47,10.00
2017,10,30,10,48,10.10
2017,10,30,10,49,10.20
2017,10,30,10,50,10.20
2017,10,30,10,51,10.30
2017,10,30,10,52,10.40
2017,10,30,10,53,10.50
2017,10,30,10,54,10.50
2017,10,30,10,55,10.60
2017,10,30,10,56,10.70
2017,10,30,10,57,10.80
2017,10,30,10,58,10.90
2017,10,30,10,59,11.00
2017,10,30,11,00,11.10
2017,10,30,11,01,11.30
2017,10,30,11,02,11.40
2017,10,30,11,03,11.50
2017,10,30,11,04,11.70
2017,10,30,11,05,11.80
2017,10,30,11,06,11.90
2017,10,30,11,07,12.00
2017,10,30,11,08,12.10
2017,10,30,11,09,12.20
2017,10,30,11,10,12.30
2017,10,30,11,11,12.40
2017,10,30,11,12,12.50
2017,10,30,11,13,12.60
2017,10,30,11,14,12.70
2017,10,30,11,15,12.70
2017,10,30,11,16,12.90
2017,10,30,11,17,12.90
2017,10,30,11,18,13.00
2017,10,30,11,19,13.10
2017,10,30,11,20,13.10
2017,10,30,11,21,13.20
2017,10,30,11,22,13.30
2017,10,30,11,23,13.40
2017,10,30,11,24,13.40
2017,10,30,11,25,13.40
2017,10,30,11,26,13.50
2017,10,30,11,27,13.60
2017,10,30,11,28,13.60
2017,10,30,11,29,13.70
2017,10,30,11,30,13.70
2017,10,30,11,31,13.80
2017,10,30,11,32,13.80
2017,10,30,11,33,13.90
2017,10,30,11,34,13.90
2017,10,30,11,35,14.00
2017,10,30,11,36,14.10
2017,10,30,11,37,14.20
2017,10,30,11,38,14.20
2017,10,30,11,39,14.30
2017,10,30,11,40,14.40
2017,10,30,11,41,14.50
2017,10,30,11,42,14.60
2017,10,30,11,43,14.70
2017,10,30,11,44,14.70
2017,10,30,11,45,14.70
2017,10,30,11,46,14.80
2017,10,30,11,47,14.80
2017,10,30,11,48,14.80
2017,10,30,11,49,14.80
2017,10,30,11,50,14.80
2017,10,30,11,51,14.90
2017,10,30,11,52,14.90
2017,10,30,11,53,14.90
2017,10,30,11,54,14.90
2017,10,30,11,55,15.00
2017,10,30,11,56,15.00
2017,10,30,11,57,15.00
2017,10,30,11,58,15.00
2017,10,30,11,59,15.00
2017,10,30,12,00,15.00
2017,10,30,12,01,15.00
2017,10,30,12,02,15.00
2017,10,30,12,03,15.00
2017,10,30,12,04,15.10
2017,10,30,12,05,15.20
2017,10,30,12,06,15.20
2017,10,30,12,07,15.30
2017,10,30,12,08,15.30
2017,10,30,12,09,15.30
2017,10,30,12,10,15.30
2017,10,30,12,11,15.30
2017,10,30,12,12,15.30
2017,10,30,12,13,15.30
2017,10,30,12,14,15.40
2017,10,30,12,15,15.40
2017,10,30,12,16,15.50
2017,10,30,12,17,15.60
2017,10,30,12,18,15.70
2017,10,30,12,19,15.70
2017,10,30,12,20,15.80
2017,10,30,12,21,15.80
2017,10,30,12,22,15.90
2017,10,30,12,23,16.00
2017,10,30,12,24,16.00
2017,10,30,12,25,16.10
2017,10,30,12,26,16.10
2017,10,30,12,27,16.20
2017,10,30,12,28,16.20
2017,10,30,12,29,16.30
2017,10,30,12,30,16.30
2017,10,30,12,31,16.30
2017,10,30,12,32,16.30
2017,10,30,12,33,16.30
2017,10,30,12,34,16.30
2017,10,30,12,35,16.30
2017,10,30,12,36,16.30
2017,10,30,12,37,16.40
2017,10,30,12,38,16.40
2017,10,30,12,39,16.40
2017,10,30,12,40,16.40
2017,10,30,12,41,16.40
2017,10,30,12,42,16.40
2017,10,30,12,43,16.40
2017,10,30,12,44,16.40
2017,10,30,12,45,16.40
2017,10,30,12,46,16.40
2017,10,30,12,47,16.40
2017,10,30,12,48,16.40
2017,10,30,12,49,16.40
2017,10,30,12,50,16.40
2017,10,30,12,51,16.30
2017,10,30,12,52,16.30
2017,10,30,12,53,16.30
2017,10,30,12,54,16.30
2017,10,30,12,55,16.30
2017,10,30,12,56,16.30
2017,10,30,12,57,16.40
2017,10,30,12,58,16.40
2017,10,30,12,59,16.40
2017,10,30,13,00,16.40
2017,10,30,13,01,16.40
2017,10,30,13,02,16.30
2017,10,30,13,03,16.30
2017,10,30,13,04,16.30
2017,10,30,13,05,16.30
2017,10,30,13,06,16.30
2017,10,30,13,07,16.30
2017,10,30,13,08,16.30
2017,10,30,13,09,16.30
2017,10,30,13,10,16.30
2017,10,30,13,11,16.30
2017,10,30,13,12,16.30
2017,10,30,13,13,16.40
2017,10,30,13,14,16.30
2017,10,30,13,15,16.30
2017,10,30,13,16,16.30
2017,10,30,13,17,16.20
2017,10,30,13,18,16.20
2017,10,30,13,19,16.20
2017,10,30,13,20,16.30
2017,10,30,13,21,16.30
2017,10,30,13,22,16.30
2017,10,30,13,23,16.30
2017,10,30,13,24,16.30
2017,10,30,13,25,16.30
2017,10,30,13,26,16.20
2017,10,30,13,27,16.20
2017,10,30,13,28,16.20
2017,10,30,13,29,16.20
2017,10,30,13,30,16.20
2017,10,30,13,31,16.20
2017,10,30,13,32,16.10
2017,10,30,13,33,16.10
2017,10,30,13,34,16.10
2017,10,30,13,35,16.10
2017,10,30,13,36,16.10
2017,10,30,13,37,16.10
2017,10,30,13,38,16.10
2017,10,30,13,39,16.10
2017,10,30,13,40,16.10
2017,10,30,13,41,16.10
2017,10,30,13,42,16.10
2017,10,30,13,43,16.10
2017,10,30,13,44,16.10
2017,10,30,13,45,16.10
2017,10,30,13,46,16.20
2017,10,30,13,47,16.20
2017,10,30,13,48,16.20
2017,10,30,13,49,16.20
2017,10,30,13,50,16.30
2017,10,30,13,51,16.30
2017,10,30,13,52,16.30
2017,10,30,13,53,16.30
2017,10,30,13,54,16.40
2017,10,30,13,55,16.50
2017,10,30,13,56,16.60
2017,10,30,13,57,16.60
2017,10,30,13,58,16.70
2017,10,30,13,59,16.80
2017,10,30,14,00,16.90
2017,10,30,14,01,17.00
2017,10,30,14,02,17.10
2017,10,30,14,03,17.10
2017,10,30,14,04,17.20
2017,10,30,14,05,17.20
2017,10,30,14,06,17.20
2017,10,30,14,07,17.20
2017,10,30,14,08,17.30
2017,10,30,14,09,17.30
2017,10,30,14,10,17.30
2017,10,30,14,11,17.30
2017,10,30,14,12,17.40
2017,10,30,14,13,17.40
2017,10,30,14,14,17.40
2017,10,30,14,15,17.40
2017,10,30,14,16,17.50
2017,10,30,14,17,17.50
2017,10,30,14,18,17.60
2017,10,30,14,19,17.60
2017,10,30,14,20,17.60
2017,10,30,14,21,17.60
2017,10,30,14,22,17.60
2017,10,30,14,23,17.60
2017,10,30,14,24,17.60
2017,10,30,14,25,17.70
2017,10,30,14,26,17.70
2017,10,30,14,27,17.70
2017,10,30,14,28,17.60
2017,10,30,14,29,17.60
2017,10,30,14,30,17.60
2017,10,30,14,31,17.60
2017,10,30,14,32,17.50
2017,10,30,14,33,17.50
2017,10,30,14,34,17.50
2017,10,30,14,35,17.60
2017,10,30,14,36,17.60
2017,10,30,14,37,17.60
2017,10,30,14,38,17.70
2017,10,30,14,39,17.70
2017,10,30,14,40,17.80
2017,10,30,14,41,17.80
2017,10,30,14,42,17.80
2017,10,30,14,43,17.80
2017,10,30,14,44,17.90
2017,10,30,14,45,17.90
2017,10,30,14,46,17.90
2017,10,30,14,47,18.00
2017,10,30,14,48,18.00
2017,10,30,14,49,18.10
2017,10,30,14,50,18.10
2017,10,30,14,51,18.10
2017,10,30,14,52,18.10
2017,10,30,14,53,18.10
2017,10,30,14,54,18.10
2017,10,30,14,55,18.20
2017,10,30,14,56,18.20
2017,10,30,14,57,18.30
2017,10,30,14,58,18.30
2017,10,30,14,59,18.30
2017,10,30,15,00,18.30
2017,10,30,15,01,18.30
2017,10,30,15,02,18.30
2017,10,30,15,03,18.20
2017,10,30,15,04,18.20
2017,10,30,15,05,18.20
2017,10,30,15,06,18.20
2017,10,30,15,07,18.20
2017,10,30,15,08,18.30
2017,10,30,15,09,18.30
2017,10,30,15,10,18.30
2017,10,30,15,11,18.30
2017,10,30,15,12,18.30
2017,10,30,15,13,18.20
2017,10,30,15,14,18.10
2017,10,30,15,15,18.00
2017,10,30,15,16,17.90
2017,10,30,15,17,17.80
2017,10,30,15,18,17.70
2017,10,30,15,19,17.60
2017,10,30,15,20,17.50
2017,10,30,15,21,17.50
2017,10,30,15,22,17.40
2017,10,30,15,23,17.30
2017,10,30,15,24,17.20
2017,10,30,15,25,17.10
2017,10,30,15,26,17.10
2017,10,30,15,27,17.00
2017,10,30,15,28,16.90
2017,10,30,15,29,16.80
2017,10,30,15,30,16.70
2017,10,30,15,31,16.70
2017,10,30,15,32,16.60
2017,10,30,15,33,16.60
2017,10,30,15,34,16.60
2017,10,30,15,35,16.60
2017,10,30,15,36,16.60
2017,10,30,15,37,16.60
2017,10,30,15,38,16.60
2017,10,30,15,39,16.60
2017,10,30,15,40,16.60
2017,10,30,15,41,16.60
2017,10,30,15,42,16.70
2017,10,30,15,43,16.70
2017,10,30,15,44,16.80
2017,10,30,15,45,16.80
2017,10,30,15,46,16.80
2017,10,30,15,47,16.80
2017,10,30,15,48,16.80
2017,10,30,15,49,16.80
2017,10,30,15,50,16.80
2017,10,30,15,51,16.80
2017,10,30,15,52,16.80
2017,10,30,15,53,16.90
2017,10,30,15,54,16.90
2017,10,30,15,55,16.80
2017,10,30,15,56,16.80
2017,10,30,15,57,16.70
2017,10,30,15,58,16.60
2017,10,30,15,59,16.50
2017,10,30,16,00,16.50
2017,10,30,16,01,16.50
2017,10,30,16,02,16.50
2017,10,30,16,03,16.50
2017,10,30,16,04,16.60
2017,10,30,16,05,16.60
2017,10,30,16,06,16.50
2017,10,30,16,07,16.50
2017,10,30,16,08,16.50
2017,10,30,16,09,16.50
2017,10,30,16,10,16.50
2017,10,30,16,11,16.60
2017,10,30,16,12,16.60
2017,10,30,16,13,16.60
2017,10,30,16,14,16.60
2017,10,30,16,15,16.60
2017,10,30,16,16,16.50
2017,10,30,16,17,16.40
2017,10,30,16,18,16.40
2017,10,30,16,19,16.30
2017,10,30,16,20,16.30
2017,10,30,16,21,16.20
2017,10,30,16,22,16.20
2017,10,30,16,23,16.10
2017,10,30,16,24,16.00
2017,10,30,16,25,16.00
2017,10,30,16,26,15.90
2017,10,30,16,27,15.80
2017,10,30,16,28,15.80
2017,10,30,16,29,15.70
2017,10,30,16,30,15.60
2017,10,30,16,31,15.60
2017,10,30,16,32,15.50
2017,10,30,16,33,15.50
2017,10,30,16,34,15.40
2017,10,30,16,35,15.40
2017,10,30,16,36,15.40
2017,10,30,16,37,15.30
2017,10,30,16,38,15.30
2017,10,30,16,39,15.30
2017,10,30,16,40,15.20
2017,10,30,16,41,15.20
2017,10,30,16,42,15.10
2017,10,30,16,43,15.10
2017,10,30,16,44,15.00
2017,10,30,16,45,15.00
2017,10,30,16,46,15.00
2017,10,30,16,47,15.00
2017,10,30,16,48,14.90
2017,10,30,16,49,14.90
2017,10,30,16,50,14.80
2017,10,30,16,51,14.80
2017,10,30,16,52,14.70
2017,10,30,16,53,14.70
2017,10,30,16,54,14.70
2017,10,30,16,55,14.70
2017,10,30,16,56,14.70
2017,10,30,16,57,14.60
2017,10,30,16,58,14.60
2017,10,30,16,59,14.60
2017,10,30,17,00,14.50
2017,10,30,17,01,14.50
2017,10,30,17,02,14.50
2017,10,30,17,03,14.40
2017,10,30,17,04,14.40
2017,10,30,17,05,14.40
2017,10,30,17,06,14.30
2017,10,30,17,07,14.30
2017,10,30,17,08,14.30
2017,10,30,17,09,14.20
2017,10,30,17,10,14.20
2017,10,30,17,11,14.20
2017,10,30,17,12,14.20
2017,10,30,17,13,14.10
2017,10,30,17,14,14.10
2017,10,30,17,15,14.10
2017,10,30,17,16,14.00
2017,10,30,17,17,14.00
2017,10,30,17,18,13.90
2017,10,30,17,19,13.90
2017,10,30,17,20,13.80
2017,10,30,17,21,13.80
2017,10,30,17,22,13.80
2017,10,30,17,23,13.70
2017,10,30,17,24,13.70
2017,10,30,17,25,13.60
2017,10,30,17,26,13.50
2017,10,30,17,27,13.50
2017,10,30,17,28,13.40
2017,10,30,17,29,13.30
2017,10,30,17,30,13.20
2017,10,30,17,31,13.10
2017,10,30,17,32,13.00
2017,10,30,17,33,13.00
2017,10,30,17,34,12.90
2017,10,30,17,35,12.80
2017,10,30,17,36,12.70
2017,10,30,17,37,12.70
2017,10,30,17,38,12.60
2017,10,30,17,39,12.50
2017,10,30,17,40,12.40
2017,10,30,17,41,12.30
2017,10,30,17,42,12.30
2017,10,30,17,43,12.20
2017,10,30,17,44,12.10
2017,10,30,17,45,12.00
2017,10,30,17,46,11.90
2017,10,30,17,47,11.80